Weather in Krasnyy Yar

Russia / Volgograd Oblast     50°37′00″N   45°46′23″E
temp.,
°C
wind,
m/s
gust,
m/s
humid.,
%
clouds,
%
prec.,
mm/h
press.,
hPa
HPBL,
m
27 july, tue
tue2700:00+18nne33540 0.0 102238
03:00+17n22550 0.0 102219
06:00+19nne23500 0.0 1022108
09:00+25nne33340 0.0 1021947
12:00+27nne34280 0.0 10202052
15:00+28nne352828 0.0 10182511
18:00+26ne443524 0.0 1018378
21:00+24nw114363 0.0 101812
28 july, wed
wed2800:00+21nw33483 0.0 101722
03:00+20nw33525 0.0 101720
06:00+21n345512 0.0 1018136
09:00+26ne33430 0.0 1017837
12:00+28nne44330 0.0 10162141
15:00+30ne452816 0.0 10152352
18:00+28ne333137 0.0 1015748
21:00+23se11390 0.0 101511
29 july, thu
thu2900:00+23s224024 0.0 101511
03:00+21ssw224334 0.0 101413
06:00+22ssw264298 0.0 1014167
09:00+27ssw6933100 0.0 1013656
12:00+32sw792665 0.0 10112629
15:00+33sw8102166 0.0 10093268
18:00+30w483454 0.0 1009721
21:00+24w225764 0.0 100923
30 july, fri
fri3000:00+23w3764100 0.0 1010135
03:00+22w366891 0.0 1010104
06:00+24wnw37628 0.0 1010241
09:00+29nw34405 0.0 10111128
12:00+32sw2533100 0.1 10102730
15:00+26e125782 1.8 101062
18:00+24ene226742 0.7 100951
21:00+22n6982100 2.1 1011286
31 july, sat
sat3100:00+21se3483100 2.1 100989
03:00+20ssw228686 2.3 101018
06:00+22nne117698 0.7 101087
09:00+26s335797 1.0 1010538
12:00+31sw364182 0.1 10091566
15:00+33w583570 0.3 10082635
18:00+32nw45375 0.0 10081066
21:00+25se126687 1.6 101050